ATLAS 5 CENTAUR DEB, 49342

Orbit data source: Space-Track

ATLAS 5 CENTAUR DEB, 49342 is space debris in HEO originally from a launch on Wed, 17 Oct 2018 UTC launched from the Air Force Eastern Test Range (AFETR). Debris objects in space refer to the collection of defunct objects orbiting the Earth. Examples of debris include non-operational satellites, rocket bodies, and fragments generated from explosions, collisions, or faulty payload assembly.

Loading next visibility...
Identifier
49342, 2018-079ET
Orbit
HEO
Country
Flag of USUS
Related business
Flag of USUnited Launch Alliance/Lockheed Martin (US)
Manufacturer
ULA Decatur
Mission
Spacecraft
Bus & Motor
Unknown
Mass
Unknown
Launch date (UTC)
2018-10-17 (8 years ago)
Launch vehicle
Unknown
Launch site
Air Force Eastern Test Range (AFETR)
Object type
Payload
Rocket body
Debris
Shape & HBR
Unknown shape, 1.1 m
Radar Cross Section
RCS unknown

Expand to show TLE details & history
Last TLE update: 1 day ago

TLE from 1 day ago
0 ATLAS 5 CENTAUR DEB
1 49342U 18079ET  26127.00182078 -.00000140  00000-0  00000-0 0  9997
2 49342  13.2974  29.0642 4761673 330.9647   9.4375  1.84620897 31602
Epoch: 2026-05-07T00:02Z
TLE epoch observation values (Epoch: 2026-05-07T00:02:37.315Z)
Latitude
-0.00003°
Longitude
163.51728°
Altitude
8,944.395 km
Speed
6.15 km/s
True Right ascension
01h 56m 06s
True Declination
0° 00' 00"
Sunlit
Object was in daylight at epoch
Visualization orbit readout
Latitude
Unknown
Longitude
Unknown
Altitude
Unknown
Speed
Unknown
Apparent Right ascension
Unknown
Apparent Declination
Unknown
Sunlit
N/A
Visualization observer readout
Local Sidereal Time
11:42:12
Azimuth
Unknown
Elevation
Unknown
Doppler factor
Unknown
Orbital elements
Apogee altitude
35,058.388 km
Perigee altitude
8,326.027 km
Semi-major axis
28,070.344 km
Eccentricity
0.47617
Inclination
13.2974°
RAAN
29.0642°
Arg. of periapsis
330.9647°
True anomaly
29.39101°
Mean anomaly
9.4375°
Eccentric anomaly
17.75901°
Mean motion
0.4615 °/min
Orbital period
780.07 mins
BSTAR
0
Loading maneuver chart data...
Computing Atmospheric mass density...

Documentation

Showing up to 5 results
|